Wind_Speed
32 32 28 24 25 28 30 30 31 31 30 31 31 31 32 30 29 29 32 34 34 34 31 30 29 26 26 27 27 27 27 27 27 28 28 28 28 28 29 29 29 29 28 27 26 26 26 26 26 26 26 26 26 27 28 28 29 29 30 32 33 34 35 36 37 38 39 40 40 41 41 42 42 43 44 44 44 45 45 45 45 45 45 45 46 46
33 31 25 25 29 30 31 32 33 33 33 34 34 34 34 33 32 32 34 35 35 35 33 31 30 28 27 28 27 27 27 27 28 28 29 29 29 30 30 30 29 29 29 28 28 27 27 27 27 27 27 27 27 27 28 29 29 30 31 33 34 35 36 37 38 39 39 40 41 42 42 43 43 44 44 44 45 46 47 47 47 48 48 48 48 48
33 29 26 28 32 32 33 34 35 35 36 36 36 36 35 34 35 35 35 35 35 35 34 33 31 29 29 29 27 27 27 28 29 30 30 30 30 31 30 30 29 30 30 30 30 29 29 28 28 28 28 28 28 28 29 30 31 33 33 34 35 36 37 38 39 40 41 42 43 43 44 44 44 44 44 44 45 46 47 47 48 49 50 51 51 51
33 30 29 31 33 34 35 36 36 37 37 37 37 37 36 35 37 37 36 36 36 36 36 35 34 32 31 30 28 28 29 29 30 31 31 31 31 31 30 30 30 31 31 31 31 31 30 29 29 29 29 29 29 30 31 33 35 35 36 36 37 38 39 39 40 41 42 43 44 45 45 45 45 45 45 45 45 46 47 49 50 51 52 53 53 54
35 33 32 33 34 36 38 37 37 37 38 38 38 38 37 37 38 38 37 37 37 37 36 37 37 34 31 31 30 30 30 31 32 32 32 31 31 31 30 31 31 32 32 32 32 32 31 31 30 30 30 31 32 33 35 36 37 38 38 38 39 39 40 41 42 42 43 44 45 46 47 47 47 46 46 47 47 47 49 50 51 52 53 55 55 56
36 35 34 35 36 38 39 39 38 38 39 40 39 38 39 38 38 39 39 39 39 38 36 37 38 34 31 31 31 30 31 32 33 32 32 32 32 31 32 32 33 33 33 33 33 32 32 32 32 31 32 33 35 36 37 38 39 39 39 40 41 41 42 43 43 44 45 45 46 47 48 49 49 49 49 49 49 50 50 52 53 54 55 56 57 58
37 35 36 37 38 39 40 39 39 40 42 41 39 38 39 39 39 40 40 40 40 39 37 36 36 35 33 32 31 31 32 33 33 32 32 32 32 33 34 34 35 35 34 34 34 33 33 32 32 33 34 36 38 39 39 40 40 41 41 42 43 43 44 45 46 46 46 47 47 48 49 50 51 51 51 52 52 53 53 54 55 56 57 57 58 59
38 38 39 39 40 40 40 39 40 41 43 41 39 39 39 39 40 40 40 40 40 39 38 35 34 35 35 33 32 32 32 32 32 32 32 33 33 35 35 35 35 35 35 34 34 34 33 33 34 36 38 39 40 41 42 42 42 43 43 44 45 46 46 47 49 50 50 50 49 49 50 51 52 53 53 54 55 55 56 57 58 58 59 60 60 61
41 41 41 41 42 42 41 41 41 41 42 40 39 39 40 40 40 40 40 40 39 39 37 33 32 36 37 36 34 32 31 30 31 32 33 34 35 35 35 35 35 35 35 34 34 34 35 36 38 40 41 43 44 44 44 44 44 44 45 46 47 47 48 49 51 52 53 53 53 52 52 52 53 54 55 56 57 57 58 59 60 61 62 62 63 63
43 43 42 43 43 43 43 42 42 41 41 40 40 40 39 40 40 40 40 39 38 38 34 32 34 37 39 37 34 31 31 31 32 33 34 35 35 35 35 35 35 34 34 34 35 36 38 40 42 44 45 46 46 46 45 45 45 46 46 47 48 48 48 50 51 53 54 55 56 56 55 54 55 56 56 57 58 59 59 60 61 62 64 65 65 66
44 44 44 45 44 44 44 43 42 41 41 40 39 39 39 40 40 40 39 38 37 35 32 33 35 37 39 37 33 32 32 34 34 34 35 35 34 34 34 34 34 34 35 36 38 40 42 44 46 47 48 48 47 47 47 47 47 47 48 49 49 49 50 51 52 53 55 57 58 58 58 57 57 58 58 59 60 60 60 61 62 63 65 66 67 68
45 46 46 46 45 45 43 42 41 40 39 39 39 39 40 41 41 40 38 37 36 35 33 35 36 37 38 36 34 34 34 35 36 36 35 35 34 35 35 35 35 36 37 39 41 43 45 46 48 49 49 49 49 48 48 48 49 49 50 50 50 50 51 52 53 55 56 58 59 60 60 60 60 60 60 60 61 61 61 62 63 64 65 67 69 70
47 46 47 47 46 44 42 41 39 39 38 39 39 39 40 41 41 40 38 37 37 36 36 37 37 38 36 34 34 35 35 36 37 36 36 35 35 36 36 36 37 39 40 42 43 45 47 48 49 50 50 50 50 50 50 50 50 51 51 51 51 52 53 54 55 56 57 59 60 61 62 63 63 62 62 62 62 62 63 63 64 65 66 68 70 72
48 48 47 47 45 43 41 39 38 38 39 39 39 39 39 40 40 39 38 38 39 38 38 38 39 39 36 34 34 35 36 37 37 37 37 36 36 37 38 39 41 42 43 45 46 48 50 51 52 52 53 53 52 52 52 52 52 52 53 53 53 54 55 56 57 58 59 60 61 62 63 64 64 65 65 64 64 64 64 64 65 66 67 68 70 72
48 47 46 44 43 41 39 38 38 39 40 40 39 39 40 39 39 39 40 41 41 40 40 40 40 39 38 36 36 36 37 37 37 37 37 37 37 38 40 42 43 45 46 47 49 51 53 54 54 54 54 54 54 54 53 53 54 54 54 54 55 57 58 59 60 61 62 62 63 64 64 65 66 66 66 66 66 66 66 66 66 66 67 68 69 71
46 45 43 41 40 39 38 38 39 40 40 41 40 41 40 38 38 40 42 43 42 43 43 42 41 40 39 39 39 38 38 37 37 38 37 38 39 40 43 45 46 47 48 49 51 53 55 55 55 55 55 54 54 54 54 54 55 55 56 57 58 60 61 62 63 64 64 65 65 66 66 66 66 66 66 67 68 68 68 68 67 68 68 69 69 70
44 43 40 38 38 38 38 38 39 40 41 42 42 42 40 39 41 42 43 42 43 45 44 43 43 42 42 42 41 39 39 39 39 39 39 40 41 44 46 48 49 50 50 52 54 55 56 56 55 55 54 54 54 54 55 55 56 58 59 60 61 62 63 64 65 65 66 66 67 67 67 67 67 68 68 69 69 70 70 70 70 70 70 70 71 71
42 41 39 38 38 38 39 40 41 42 43 44 43 41 41 42 42 42 42 43 44 46 45 44 45 44 45 44 42 40 41 41 41 41 41 42 44 47 50 51 52 52 53 55 56 57 56 55 55 54 54 55 55 55 56 58 59 60 61 62 63 64 65 65 66 66 67 67 68 68 68 68 69 69 70 70 71 71 71 71 72 72 72 72 73 73
41 40 40 39 39 39 40 41 43 44 43 43 42 42 43 44 42 41 42 44 45 47 48 48 48 48 48 46 43 42 43 43 43 43 43 45 48 51 53 54 54 54 54 55 55 55 54 54 54 54 55 55 56 57 59 60 61 62 63 64 65 66 67 68 68 68 69 69 70 70 70 70 71 71 71 72 72 72 72 72 73 73 73 74 75 75
41 42 42 41 41 41 42 44 45 43 42 43 44 44 44 43 43 43 44 45 47 49 51 52 52 52 51 48 47 46 46 45 45 45 47 49 53 55 56 55 54 54 54 54 54 53 52 53 54 55 56 57 58 60 61 62 63 64 65 66 67 68 69 70 71 71 72 72 73 73 73 73 72 72 72 73 73 73 73 74 74 74 75 75 76 76
44 45 45 44 44 45 46 45 44 43 44 45 45 45 44 44 44 45 46 48 49 50 50 52 54 55 54 53 51 49 49 48 48 50 52 55 58 59 58 55 53 53 53 52 52 52 52 54 56 58 59 60 61 62 64 64 65 66 67 67 68 70 71 72 72 73 73 74 74 74 73 73 73 73 74 74 74 74 74 75 75 75 76 76 77 78
47 47 47 48 48 49 48 47 47 48 48 48 46 45 45 45 45 47 49 48 47 48 48 51 55 56 57 57 54 51 51 52 54 56 58 60 61 60 57 54 53 52 52 52 53 54 55 57 59 61 62 63 64 66 67 67 68 68 69 70 71 72 72 73 73 74 74 74 74 74 73 73 74 74 74 74 74 74 74 75 75 76 76 77 78 78
49 49 50 51 51 49 49 49 50 50 50 49 48 47 46 46 46 46 47 46 45 48 49 52 55 57 57 57 54 53 54 57 59 61 62 63 62 59 55 54 54 54 53 54 55 57 59 60 62 63 64 66 67 68 69 69 70 71 71 72 73 73 74 74 74 74 74 75 74 74 73 73 73 73 73 73 73 74 74 75 76 76 77 78 78 79
50 49 49 50 50 49 50 51 51 52 52 50 49 47 45 44 42 43 45 46 48 51 52 53 56 57 56 55 56 57 59 60 62 64 64 62 59 56 55 56 56 56 56 58 59 60 62 63 64 65 66 68 69 70 70 71 72 72 73 74 74 74 73 73 73 74 74 73 72 72 72 72 72 72 72 73 73 74 75 76 77 77 78 79 79 80
51 50 48 49 51 52 53 53 52 51 49 48 48 48 46 44 44 46 47 48 52 54 53 54 57 57 56 58 61 62 61 61 63 63 61 58 55 55 56 57 57 58 60 61 62 63 64 65 66 67 68 69 70 71 72 73 74 74 74 74 74 73 73 73 73 73 72 71 70 70 71 71 71 72 73 74 75 76 77 77 78 78 79 80 81 81
53 53 52 53 55 56 56 54 51 49 48 49 52 52 50 49 49 49 49 51 55 56 55 56 59 58 57 61 64 63 62 62 62 60 56 53 53 54 56 58 60 62 63 64 65 66 67 67 68 69 70 72 72 73 74 74 74 74 74 73 72 72 72 72 72 71 70 70 70 70 71 71 72 73 74 75 76 77 77 78 79 80 80 81 81 82
56 56 55 55 56 56 55 54 52 52 53 55 55 54 52 51 50 50 52 54 56 57 58 59 61 61 60 62 64 63 62 60 57 54 53 52 53 55 58 60 63 64 65 66 67 68 69 69 70 72 73 74 74 74 74 74 73 72 71 71 71 71 70 70 69 69 69 69 70 71 72 72 73 74 75 76 77 77 78 79 79 80 81 81 82 83
61 60 59 58 57 56 56 56 57 58 59 59 57 55 53 52 52 54 55 56 57 60 61 60 62 65 64 63 63 61 58 55 52 52 53 54 55 57 60 62 65 66 67 68 69 70 71 72 73 74 74 74 75 74 73 72 71 70 69 69 69 68 68 68 69 69 70 70 71 72 72 73 74 75 76 77 77 78 78 79 80 81 82 83 84 85
60 59 59 58 58 58 58 58 59 59 59 58 56 54 52 53 55 57 58 59 61 64 65 64 66 67 63 61 59 56 53 52 53 54 55 56 58 60 62 64 66 67 68 69 70 71 72 73 74 74 75 74 74 72 71 70 69 68 68 67 66 67 67 69 69 70 70 71 71 72 73 74 75 76 76 77 77 78 79 80 81 82 83 84 85 86
53 53 53 54 55 56 57 57 57 58 58 57 54 52 52 55 59 60 60 62 65 67 67 66 66 64 60 57 55 52 52 54 54 56 57 59 61 63 65 67 69 69 69 70 71 72 73 74 74 75 74 73 72 70 69 69 68 67 66 66 66 67 68 69 69 70 70 71 73 73 74 75 76 77 77 78 78 79 80 81 82 83 84 85 86 86
52 52 53 53 54 55 55 56 58 58 58 57 53 51 54 58 61 62 62 64 66 66 64 63 63 61 56 53 52 53 55 56 57 58 60 62 64 67 69 71 71 71 71 71 72 73 73 74 74 74 73 72 71 70 69 67 66 66 66 66 66 67 68 69 70 71 72 73 74 74 75 76 77 78 79 79 80 81 82 83 84 84 85 85 85 84
55 56 56 55 55 56 55 56 57 58 59 59 57 57 60 63 63 63 64 64 64 62 61 61 61 57 51 51 54 56 56 57 58 60 63 65 68 71 72 72 71 71 72 72 72 73 73 73 73 72 71 70 69 67 66 65 66 66 65 66 67 68 69 70 71 72 73 74 75 76 77 78 79 79 80 81 81 82 83 84 84 84 84 83 82 81
56 55 55 56 58 59 58 58 59 60 63 66 64 61 62 63 63 64 64 62 61 60 60 61 59 54 52 54 56 57 58 59 61 64 67 69 70 71 72 71 71 71 71 72 72 72 72 72 71 70 68 66 65 64 64 64 65 65 65 66 68 69 70 71 72 73 74 75 76 78 79 80 80 81 81 82 83 83 83 83 83 82 81 80 78 75
56 55 56 58 60 61 61 62 62 65 69 69 65 63 64 65 66 66 65 63 62 62 62 61 59 57 57 58 59 59 61 63 65 67 68 69 70 70 70 71 71 71 71 72 72 71 70 69 68 66 65 64 63 63 63 64 64 65 66 67 68 69 71 72 74 75 76 77 78 79 80 81 81 82 83 83 83 82 82 81 80 78 76 73 71 68
57 57 58 59 60 62 63 63 66 70 71 69 67 67 68 68 68 67 66 65 65 65 65 64 62 61 61 60 60 61 63 65 67 67 68 68 68 68 69 70 70 70 70 70 69 68 67 66 65 64 63 63 62 62 63 63 64 65 66 68 69 71 73 74 75 76 77 78 80 81 81 82 82 82 82 82 81 80 78 77 75 72 70 67 64 61
60 60 59 59 61 63 64 65 69 72 71 69 69 70 69 69 69 69 68 68 67 67 66 65 63 61 61 61 61 63 64 65 66 66 66 66 67 68 69 69 68 68 68 66 65 65 64 64 63 62 62 62 62 62 63 64 65 66 68 70 72 73 75 76 77 78 79 80 81 81 81 81 81 81 80 79 78 76 74 72 69 66 64 61 59 58
63 62 61 62 63 65 67 69 71 72 72 70 70 70 70 70 70 70 70 69 67 67 67 66 65 63 62 62 63 64 65 66 66 65 65 66 68 69 68 67 67 67 65 64 64 63 63 63 62 62 62 62 62 63 63 65 67 69 71 73 74 75 77 78 78 79 80 80 81 80 80 79 79 78 77 75 73 71 69 66 64 61 59 58 57 57
62 62 63 65 67 68 69 72 73 75 75 71 69 69 70 71 71 71 71 70 69 69 70 68 65 63 63 63 65 66 67 68 68 66 66 68 68 68 66 66 66 65 64 63 63 63 63 62 62 62 62 62 63 64 66 68 70 72 73 75 76 77 78 79 79 80 80 80 79 78 77 77 76 74 72 70 68 66 63 61 59 58 57 56 56 57
62 63 64 66 69 70 71 72 73 75 75 72 70 71 71 71 72 72 73 74 74 71 68 66 65 65 66 68 69 70 70 70 68 66 67 67 66 64 64 64 64 63 63 63 62 62 62 62 62 62 63 64 65 67 69 71 72 74 75 77 78 79 79 79 79 79 78 77 76 75 74 73 71 69 67 65 62 60 59 57 56 56 56 56 57 58
63 64 65 67 69 69 69 71 72 73 72 71 71 71 71 71 72 72 74 77 75 70 68 70 71 72 71 71 71 70 68 67 66 66 66 65 63 63 63 63 63 63 62 62 62 62 62 62 63 63 65 66 68 69 71 73 74 76 77 78 79 79 78 78 77 76 75 73 72 71 69 67 66 64 61 59 57 56 55 55 55 55 56 57 58 59
65 66 68 68 68 68 69 70 71 71 71 71 72 71 70 70 71 72 72 72 72 71 72 73 73 72 71 70 68 66 65 65 65 65 64 63 62 62 61 62 62 62 62 62 62 62 62 63 64 65 67 68 70 72 74 75 76 77 79 79 79 77 76 75 74 72 70 68 67 66 64 62 60 58 56 55 54 53 54 54 55 56 57 58 59 60
67 68 69 70 70 70 70 71 72 73 74 73 71 70 69 69 70 72 72 71 71 71 70 69 68 68 68 67 65 64 64 64 64 63 62 61 60 60 60 61 61 61 61 62 62 63 63 64 66 68 70 72 73 74 75 76 77 78 78 78 75 73 71 70 68 65 64 63 61 59 58 56 55 54 52 52 52 53 54 55 56 57 57 58 59 59
67 68 70 70 70 70 70 72 73 73 72 70 69 69 70 70 71 71 70 69 68 67 65 65 65 65 65 64 62 61 61 61 61 60 59 58 58 59 60 60 60 61 61 62 64 65 66 67 69 71 73 74 75 75 76 76 76 75 74 71 68 67 66 64 62 60 58 57 56 54 54 53 52 51 51 51 52 53 54 55 56 57 57 58 58 59
69 69 70 69 70 71 71 72 73 73 70 69 69 69 68 67 67 66 65 64 64 64 64 64 63 62 62 60 59 59 59 59 59 58 57 57 58 59 59 60 61 62 63 65 66 67 69 70 72 73 74 74 74 74 74 72 70 69 66 64 62 62 61 58 56 54 53 52 52 52 52 51 50 50 51 52 52 53 54 55 56 56 57 58 58 59
71 71 71 71 72 73 72 72 73 72 70 68 67 66 64 63 63 62 62 61 62 62 62 62 61 60 59 58 58 58 58 57 57 57 57 58 59 60 61 62 63 64 66 67 69 70 71 72 73 73 72 71 70 69 67 65 63 62 60 59 58 57 55 52 51 50 50 50 50 50 50 49 49 50 50 51 52 53 54 55 56 57 58 58 59 59
71 71 71 72 72 72 72 73 73 69 66 65 64 63 62 61 60 60 59 60 61 62 61 60 59 58 58 58 58 58 57 58 58 58 58 59 60 61 63 64 66 67 69 70 71 72 72 72 71 69 67 65 63 61 60 59 58 56 55 55 54 53 51 49 48 48 49 49 48 48 48 48 49 49 50 51 52 53 54 55 56 57 58 58 59 59
70 69 69 71 72 72 72 72 69 65 63 63 62 60 59 58 58 59 60 61 62 61 60 59 58 58 58 58 58 59 59 59 59 59 59 60 61 63 65 67 68 69 70 70 71 71 70 68 66 63 60 58 56 55 55 54 53 52 52 52 51 50 49 48 48 48 48 48 47 47 47 47 48 49 50 51 52 53 54 55 56 57 58 58 58 58
66 66 67 69 71 70 69 68 66 63 61 59 57 56 56 57 59 61 62 62 61 59 58 59 59 59 59 59 60 61 60 60 60 60 60 61 63 65 67 69 69 69 69 69 69 68 65 62 58 55 54 53 52 52 52 51 50 50 50 49 49 49 48 48 48 47 47 46 46 46 46 47 48 49 50 51 52 54 55 56 57 57 58 58 57 57
62 64 65 65 65 65 64 63 60 59 59 59 58 58 59 60 61 62 61 61 60 59 59 60 61 61 61 61 61 61 61 61 62 62 62 63 65 67 68 68 68 67 67 66 65 62 58 55 52 52 51 51 51 51 50 49 48 48 47 48 48 48 48 48 48 47 46 46 47 47 47 47 48 50 51 52 54 55 57 58 58 58 57 57 56 56
58 58 57 57 59 60 59 57 56 58 60 61 60 60 60 60 61 61 60 60 60 60 61 62 62 63 63 63 63 63 63 63 64 65 65 66 66 66 66 66 65 64 63 61 59 55 53 51 50 50 50 50 50 50 49 48 47 47 47 47 48 48 49 49 48 47 47 48 48 48 48 49 50 51 52 54 55 57 58 59 59 59 57 56 56 56
52 52 52 54 57 58 56 55 57 58 59 58 58 59 59 59 60 60 60 60 61 62 63 64 64 65 65 65 65 65 65 66 67 68 68 67 65 64 64 63 62 60 58 56 53 52 50 50 50 50 50 50 50 49 48 48 47 47 47 48 48 48 49 49 48 48 49 50 50 50 50 51 52 53 54 55 56 58 59 59 60 59 57 55 55 56
Wind_Direction
275 275 278 282 278 273 273 276 279 281 282 282 281 281 282 282 284 283 280 281 282 281 281 280 279 278 275 274 274 274 274 277 279 282 283 284 285 285 284 283 282 282 283 283 284 284 284 285 285 285 286 286 286 286 286 287 288 289 290 290 290 289 289 289 289 288 288 287 286 286 285 284 283 283 282 282 281 281 280 280 279 277 276 275 273 272
273 274 278 277 273 273 277 279 280 281 281 281 281 281 282 285 286 284 283 283 283 283 284 283 283 281 277 274 274 275 277 278 280 281 282 283 283 283 281 281 282 283 285 286 285 283 282 281 281 281 281 280 280 281 282 284 285 286 287 287 287 287 287 287 286 286 285 285 284 283 282 281 280 279 278 278 277 277 277 277 277 277 276 276 275 274
271 273 275 273 274 277 278 280 281 281 281 282 282 282 283 286 285 284 284 285 285 285 286 285 284 282 280 279 279 279 279 280 280 280 280 280 280 279 280 281 283 285 286 286 285 283 281 280 279 278 278 278 279 280 282 284 286 287 287 287 287 286 286 286 286 286 285 285 284 283 282 281 280 279 278 276 275 274 274 273 273 274 274 275 275 274
270 272 272 273 276 278 278 279 281 281 282 282 282 283 284 285 283 284 285 285 285 284 285 285 283 282 282 282 282 281 280 279 278 277 277 277 277 278 280 283 284 284 283 283 283 282 280 278 278 278 278 279 280 282 285 287 288 288 288 287 287 287 287 287 287 287 286 286 285 284 282 281 280 279 278 276 275 274 272 272 272 272 273 273 273 273
270 271 272 275 277 277 278 279 281 282 282 282 282 282 282 282 281 283 284 283 283 283 284 284 281 281 283 283 282 281 279 277 276 276 277 277 278 280 282 284 284 283 282 282 281 279 277 276 275 275 276 278 281 284 286 288 288 288 288 287 287 287 287 287 287 287 287 287 286 285 283 282 280 279 277 276 274 273 272 271 272 272 272 273 273 273
269 272 275 276 276 277 279 281 282 282 280 279 280 280 280 280 281 281 281 281 280 281 282 281 280 281 282 281 281 280 278 277 277 279 279 280 281 283 285 285 284 283 283 281 279 276 274 273 273 274 276 280 283 285 286 286 287 287 287 286 286 287 287 287 287 287 287 287 286 285 284 283 281 280 278 276 274 272 271 271 271 271 271 272 272 273
271 274 275 275 276 278 279 282 283 280 277 277 278 279 279 279 279 278 278 278 279 279 279 278 280 282 281 279 278 277 277 279 281 283 283 284 286 286 286 286 286 284 282 280 277 274 272 272 273 275 279 283 285 285 286 286 286 287 288 288 288 288 288 288 288 288 288 287 286 285 284 283 282 280 278 277 275 273 272 271 271 271 271 271 271 272
273 274 274 275 276 277 279 281 280 277 275 276 277 277 276 276 276 276 276 276 276 277 276 276 279 280 280 279 278 278 279 282 283 284 285 286 286 286 286 287 287 285 282 279 277 275 274 274 276 280 284 286 286 287 287 287 288 288 289 289 289 289 289 290 290 290 290 289 287 285 283 282 280 279 278 276 275 274 273 272 272 271 271 271 271 271
273 273 274 275 275 276 278 278 277 275 274 275 275 274 273 273 273 274 273 274 274 273 273 276 278 278 279 280 279 281 284 284 284 284 284 285 285 286 287 287 286 284 282 280 278 277 277 279 282 286 288 288 288 288 288 288 288 288 288 288 289 289 290 290 291 290 290 289 288 286 284 281 279 278 277 276 275 274 273 272 272 271 271 271 271 271
272 273 274 274 274 276 277 276 275 274 272 272 271 271 270 270 270 271 271 272 272 271 274 277 277 278 280 281 282 286 287 286 285 285 285 286 287 288 287 286 285 285 284 282 281 280 281 284 287 288 288 288 288 288 288 288 288 288 288 288 288 288 289 289 289 289 288 288 287 286 284 282 279 278 276 275 274 274 273 272 272 272 271 271 271 271
272 273 272 273 274 275 275 275 273 271 270 270 269 269 269 269 268 268 268 268 269 272 278 279 277 278 280 284 288 290 289 290 290 290 290 291 291 291 290 289 288 287 285 284 284 284 285 286 287 288 289 289 289 289 289 289 289 288 288 288 288 288 288 288 287 287 287 286 285 284 283 282 280 279 277 276 276 275 274 274 273 272 272 271 271 271
272 272 272 272 273 273 273 272 270 269 269 269 268 268 267 266 265 264 264 265 269 275 280 279 277 276 279 286 291 291 292 293 294 294 294 293 292 292 291 290 289 287 286 285 285 286 287 288 289 290 290 290 290 290 289 289 288 288 288 287 287 287 287 287 287 286 285 284 284 283 283 282 281 280 279 278 277 276 276 275 274 273 272 271 271 271
271 270 270 270 271 272 271 269 268 268 268 267 266 265 265 265 265 264 264 267 271 275 277 278 278 278 282 287 289 290 292 293 293 293 293 292 292 292 292 292 292 291 290 290 290 291 291 292 292 292 291 291 290 289 289 289 288 288 288 288 288 288 288 287 286 285 284 283 283 282 283 283 282 282 281 279 278 278 277 277 276 275 273 272 271 271
270 269 269 269 270 269 268 267 266 265 264 263 264 264 264 264 265 267 270 271 272 273 275 277 279 282 287 289 287 289 289 290 292 292 291 292 293 295 296 297 296 296 296 296 296 296 296 295 294 293 291 290 289 289 290 290 290 289 289 289 289 289 289 288 287 285 284 284 283 283 283 283 283 282 282 281 280 280 279 278 277 276 275 274 273 273
270 269 269 269 268 266 264 263 263 262 263 263 263 263 263 264 267 271 272 272 272 274 275 277 280 285 290 290 287 286 286 288 290 290 290 292 294 296 298 298 299 299 298 297 296 295 295 294 292 290 289 289 289 290 290 290 290 290 290 290 290 290 289 288 287 286 285 285 284 284 284 284 284 283 283 282 282 281 281 280 279 278 276 275 275 274
270 269 268 265 263 262 261 261 262 262 263 263 263 263 264 267 269 270 270 271 274 276 277 280 283 286 287 287 286 286 287 289 289 289 290 293 295 297 298 299 299 298 296 294 293 293 292 291 289 288 288 288 289 290 290 290 291 291 292 291 291 290 289 288 287 286 286 285 285 285 285 285 284 284 283 282 282 282 281 281 280 279 278 277 277 276
268 267 265 262 260 260 261 262 262 263 263 264 264 266 268 269 269 269 270 272 274 276 279 282 284 285 285 286 286 287 289 289 288 289 292 294 296 298 299 300 298 296 294 291 290 290 289 288 287 287 288 289 289 290 291 292 292 292 292 291 290 289 288 287 286 286 286 286 286 286 285 285 284 283 283 282 282 282 282 281 281 281 280 280 280 280
265 265 264 261 260 260 260 262 263 263 264 265 266 268 269 268 268 269 271 273 275 278 282 283 285 286 286 286 288 288 288 289 289 291 293 296 298 299 299 298 296 293 290 288 288 288 287 288 288 288 289 290 291 292 292 292 292 291 291 290 289 289 288 288 287 287 287 286 286 285 284 284 283 283 282 282 282 282 282 282 282 282 282 282 282 282
266 266 266 263 261 261 262 263 263 264 265 267 268 268 268 268 268 269 272 275 278 281 283 285 287 288 288 287 288 287 286 288 289 291 294 297 298 297 296 293 291 289 287 286 286 286 287 288 288 288 289 289 290 291 291 292 291 290 290 289 289 288 288 288 288 288 287 287 286 285 285 284 284 284 283 283 283 283 283 283 283 283 283 284 284 285
268 266 265 264 263 264 264 263 264 265 266 267 266 266 266 266 268 271 274 277 279 280 284 287 288 288 288 288 287 285 285 288 290 294 296 297 295 294 292 290 288 286 285 284 284 286 286 286 287 287 288 289 290 291 292 292 291 291 290 289 288 288 288 288 287 287 287 287 287 287 287 286 286 285 285 285 284 284 284 285 285 286 287 288 288 289
269 268 267 267 267 267 266 267 267 265 263 262 262 264 265 267 270 273 274 276 277 279 283 285 286 288 288 287 287 287 289 291 294 296 296 295 294 293 291 288 286 285 284 284 287 288 288 287 288 289 290 292 293 294 293 292 292 291 290 289 288 288 288 287 287 288 288 288 287 287 287 286 286 285 285 286 286 287 287 288 289 289 290 290 290 290
271 271 269 267 267 267 267 266 264 261 260 260 261 263 267 270 272 273 275 277 278 279 281 281 284 289 289 288 289 291 293 296 297 296 294 293 292 291 289 286 285 285 286 288 290 290 289 289 290 292 293 295 294 294 293 293 292 291 290 289 289 289 288 288 289 289 288 287 287 286 286 286 286 286 287 288 288 289 290 290 290 290 290 290 290 290
270 269 268 267 266 267 266 264 263 262 261 260 261 267 272 275 276 275 277 279 277 277 277 278 283 288 287 287 290 293 295 297 296 293 292 291 291 290 289 288 288 289 290 290 291 290 290 290 292 293 294 294 294 293 292 292 291 291 290 290 289 289 289 289 289 288 287 287 287 287 287 287 287 288 289 289 290 290 290 290 290 290 290 290 290 290
270 268 268 268 267 266 265 264 262 260 260 262 268 275 277 279 278 275 275 275 274 277 279 278 282 286 286 290 294 294 295 293 291 290 291 291 291 290 289 289 289 290 291 290 290 290 290 291 292 292 292 292 292 291 291 290 290 290 290 290 290 290 289 289 288 288 288 288 288 288 288 288 289 290 290 290 291 291 291 291 291 291 291 291 291 291
268 268 267 267 266 265 263 262 262 263 266 270 274 276 277 278 276 273 273 271 273 279 279 276 282 288 291 294 294 291 290 289 288 289 291 291 290 287 286 287 288 289 289 289 289 289 290 290 291 291 291 290 290 289 289 289 289 289 290 290 290 289 289 288 288 288 288 289 289 289 289 290 290 290 290 291 291 291 291 291 292 292 292 292 292 292
262 263 265 266 266 265 265 266 267 268 269 271 273 275 276 276 274 271 270 269 274 280 279 279 286 291 292 291 289 287 289 289 289 291 291 290 288 286 286 287 288 288 288 288 289 289 289 290 290 291 290 289 289 289 289 289 289 290 289 289 289 288 288 288 288 288 288 289 289 289 290 290 290 290 291 291 291 292 292 292 292 292 292 292 292 292
259 260 262 264 264 264 265 266 267 267 269 271 275 277 277 275 273 270 269 273 278 279 279 285 289 288 288 288 286 287 289 290 290 291 290 289 287 287 287 287 287 287 287 288 288 289 290 290 290 290 289 290 290 289 289 289 289 289 288 288 287 287 287 288 288 288 288 288 289 289 290 290 291 291 291 292 291 292 292 292 292 292 293 293 293 293
259 260 261 262 261 260 261 264 266 268 271 273 275 277 277 277 275 272 273 278 279 276 281 289 288 285 287 288 287 288 290 290 290 289 287 286 286 285 285 285 285 286 286 287 288 289 289 289 289 289 289 289 289 289 289 289 288 288 287 287 287 287 287 287 287 288 288 289 289 290 290 291 291 291 292 292 292 292 293 293 293 293 293 294 294 294
257 258 260 260 260 260 262 265 268 269 271 273 274 277 279 279 275 273 276 278 277 278 283 286 283 284 288 289 288 289 290 288 286 284 283 282 282 282 283 283 284 285 285 287 287 288 288 288 288 288 289 289 289 289 289 288 288 288 287 287 287 287 287 288 288 289 290 290 290 291 291 291 292 292 292 292 293 293 293 293 293 294 294 294 295 295
250 251 253 255 257 259 262 264 266 267 269 271 272 275 277 275 273 273 275 277 278 280 282 283 283 286 288 287 287 288 285 282 281 280 281 281 281 282 283 284 285 285 285 286 286 286 287 287 288 288 289 289 289 288 288 288 288 288 288 288 288 289 289 289 290 290 291 291 291 291 292 292 292 292 292 293 293 293 293 293 294 294 294 295 295 295
245 247 248 251 254 256 258 261 262 263 265 266 268 271 271 270 271 274 277 278 278 280 282 283 283 286 288 286 285 282 279 278 279 280 281 282 283 284 285 285 285 284 285 285 285 286 286 287 287 288 288 288 288 288 288 288 289 289 289 289 290 290 290 290 291 291 291 291 292 292 292 292 292 292 293 293 293 293 293 294 294 295 295 296 295 295
247 250 252 253 254 256 258 260 261 261 262 263 266 270 271 273 277 280 279 278 279 280 282 281 281 284 285 282 279 278 278 279 280 281 282 283 284 284 284 284 284 284 285 285 285 286 286 286 287 287 288 288 288 288 288 288 288 289 290 290 290 290 290 290 291 291 291 292 292 292 292 292 292 293 293 293 293 294 294 295 295 295 295 295 295 294
251 254 256 256 257 259 260 261 262 262 262 264 269 274 277 280 282 280 278 279 279 279 279 279 281 282 280 278 279 280 280 280 281 282 282 283 283 283 283 283 283 284 285 285 285 286 286 287 288 288 288 288 287 287 287 288 288 289 290 290 289 290 290 290 290 291 291 292 292 292 292 292 293 293 294 294 294 295 295 296 296 295 295 295 294 294
254 256 257 258 261 263 264 265 265 263 265 269 274 278 280 281 280 279 279 279 278 278 278 279 280 281 280 281 282 282 281 281 281 281 282 282 282 283 283 283 284 284 285 285 286 286 287 287 287 287 287 286 286 286 287 287 288 288 289 289 289 289 290 290 291 291 292 292 292 292 292 293 294 294 295 295 296 296 296 296 295 295 295 295 295 294
259 260 260 261 263 265 267 267 265 267 272 277 279 280 280 280 279 278 277 278 278 279 279 280 281 282 282 282 281 280 280 280 281 282 282 282 282 282 283 283 284 285 285 286 286 287 286 286 285 285 285 285 285 286 286 287 287 288 288 288 289 290 290 291 291 291 291 291 292 292 293 294 295 295 296 296 296 296 296 295 295 295 295 295 295 294
261 262 263 263 264 264 265 265 266 270 276 278 278 279 280 278 277 276 275 277 279 279 280 281 281 281 281 281 279 279 279 280 280 281 281 281 282 282 282 283 285 285 286 286 286 285 285 284 284 284 284 285 285 286 287 287 287 288 288 289 290 290 290 291 291 291 292 292 293 294 295 296 296 296 296 296 296 296 296 296 296 296 296 295 295 294
262 263 263 263 263 262 263 264 265 267 270 273 276 278 277 275 274 274 274 276 277 278 279 280 281 281 281 280 279 279 279 280 281 282 281 281 281 283 284 285 285 285 285 284 284 284 283 283 283 284 284 285 286 287 287 288 288 289 289 290 290 290 290 291 292 292 293 294 295 296 296 296 296 296 296 295 296 296 296 296 297 297 296 296 296 295
258 259 259 258 258 259 259 260 261 262 265 271 273 272 271 272 272 273 275 276 275 277 279 281 282 283 282 280 280 281 281 282 283 283 282 282 284 285 286 285 284 284 284 284 283 283 283 283 284 285 286 287 287 288 288 288 289 289 289 290 290 291 292 293 294 294 295 295 296 296 296 295 295 295 295 295 296 297 297 298 297 297 297 296 296 296
253 253 254 253 254 256 257 258 259 261 264 268 268 267 269 271 272 275 277 276 276 278 281 283 283 282 281 281 282 283 283 285 286 285 284 285 286 286 285 284 284 284 284 283 283 283 284 285 285 286 287 287 288 288 288 288 289 289 290 291 292 293 294 295 295 295 296 296 296 295 295 295 295 295 296 297 298 298 298 298 298 297 297 296 296 296
252 252 253 253 254 256 258 259 261 262 265 267 268 268 271 273 275 278 280 279 279 279 280 280 280 281 282 283 284 284 285 285 285 283 283 284 284 283 283 283 283 282 282 282 283 284 285 286 286 287 288 288 288 288 288 289 290 291 292 293 294 295 296 295 295 296 296 295 294 294 294 295 295 296 297 298 299 299 298 298 297 297 296 296 296 296
253 254 254 255 256 257 260 262 265 265 266 268 271 274 277 279 280 281 281 282 281 280 279 280 281 282 283 282 282 283 283 282 281 281 281 281 281 281 281 281 281 282 282 283 284 285 286 287 287 288 288 288 289 289 290 292 293 294 295 295 296 296 295 295 295 295 294 293 293 294 295 295 296 297 298 299 299 298 297 297 297 296 296 296 296 297
255 256 257 257 258 260 263 266 269 269 268 270 276 280 282 282 281 281 281 281 281 281 281 281 281 280 280 280 280 280 280 280 280 281 281 281 281 281 281 281 282 282 283 284 285 286 287 288 289 289 289 290 291 292 293 295 295 295 295 295 296 295 295 294 294 293 293 293 294 294 295 296 297 298 298 298 298 297 297 297 297 297 297 297 297 297
257 259 260 261 262 265 267 269 271 272 273 275 279 282 281 281 281 281 281 280 280 280 279 278 277 277 278 278 279 279 280 280 280 281 282 282 281 281 282 283 283 284 285 286 287 288 289 290 290 290 291 292 293 295 296 296 295 295 295 295 295 294 293 293 292 292 293 294 295 295 295 296 297 297 297 297 297 297 297 298 298 298 298 298 298 298
261 262 265 266 267 269 271 273 274 276 277 279 281 283 283 281 280 279 278 278 277 276 275 275 276 277 277 278 279 279 280 280 280 281 282 282 283 284 284 285 285 286 287 288 288 289 290 291 291 292 293 295 296 296 296 295 295 295 295 295 294 293 292 292 292 293 294 295 295 295 295 296 297 296 296 297 297 298 299 299 299 299 300 300 300 300
268 268 270 271 272 273 275 276 277 278 280 282 283 283 281 279 277 277 276 275 274 274 274 275 276 277 278 279 279 280 280 281 282 283 283 284 285 286 286 286 287 287 288 288 289 290 290 291 293 294 295 297 297 296 295 295 295 296 296 294 293 292 292 291 292 294 294 294 294 294 295 295 295 295 296 298 299 299 299 300 300 301 301 301 301 301
273 274 274 275 276 277 278 279 280 281 283 284 283 281 278 277 276 275 274 273 272 273 274 276 277 278 279 280 280 281 281 282 283 284 284 285 286 287 288 288 288 288 288 289 290 291 292 293 295 296 296 297 296 295 295 296 297 297 296 294 293 292 291 291 292 293 293 293 293 293 293 293 294 296 298 298 298 299 300 301 302 303 303 302 302 302
275 276 277 277 277 278 279 280 281 282 283 282 280 278 276 275 274 273 272 272 272 274 277 278 279 279 280 281 281 282 282 283 283 284 285 286 287 288 288 288 288 289 290 291 292 293 294 295 296 296 296 296 296 296 297 298 298 297 296 295 294 293 292 292 292 292 292 292 292 291 292 293 295 297 297 298 299 301 302 303 304 305 305 304 304 303
275 275 276 277 278 278 279 280 281 281 281 279 277 274 272 271 271 271 272 273 275 277 279 280 280 280 281 281 281 282 283 283 284 285 286 287 288 288 288 288 289 291 292 293 294 295 295 296 296 295 295 296 297 298 300 300 300 299 297 296 295 293 292 292 291 290 290 290 290 290 291 294 296 297 298 300 301 303 304 305 307 308 308 307 306 305
274 275 276 277 278 278 279 279 278 277 275 273 271 270 270 271 271 272 273 276 278 279 279 279 280 280 281 281 282 283 284 285 286 287 287 288 288 288 289 290 291 293 294 294 294 295 296 296 295 296 297 298 299 300 302 302 301 299 297 296 294 293 292 290 290 289 289 288 288 289 292 295 297 299 300 301 302 304 305 307 308 310 309 308 308 308
275 276 277 277 277 277 276 274 273 271 270 270 270 271 271 272 273 274 276 278 279 279 279 279 280 280 281 282 283 284 285 287 287 288 288 289 289 290 291 292 293 293 293 293 294 295 296 296 297 298 299 300 301 302 302 302 301 299 297 295 294 293 292 290 289 288 287 287 288 290 293 296 298 300 301 302 303 304 305 307 309 310 310 309 309 309
275 276 276 276 276 275 273 271 270 269 269 270 271 271 271 272 274 275 277 278 279 279 280 280 281 282 283 284 285 286 287 288 288 289 289 289 290 291 292 292 292 292 292 293 294 296 297 298 299 299 300 300 301 301 301 301 299 298 297 296 295 294 293 292 290 288 288 288 290 292 294 297 298 299 301 302 303 304 305 307 309 310 309 309 310 311
Height
5826 5826 5829 5830 5829 5827 5826 5827 5827 5828 5828 5828 5828 5828 5828 5829 5830 5830 5827 5826 5825 5824 5826 5827 5826 5828 5828 5827 5827 5828 5828 5828 5828 5827 5826 5826 5826 5826 5826 5826 5826 5826 5825 5825 5825 5824 5824 5823 5823 5823 5823 5823 5822 5822 5822 5822 5822 5822 5822 5821 5821 5820 5819 5819 5818 5817 5816 5815 5814 5813 5812 5811 5809 5808 5806 5805 5804 5803 5802 5801 5800 5799 5797 5796 5795 5794
5822 5823 5826 5826 5823 5823 5823 5823 5824 5824 5824 5824 5823 5823 5823 5824 5825 5824 5823 5822 5821 5820 5821 5823 5823 5824 5823 5823 5824 5824 5824 5824 5823 5823 5822 5823 5823 5823 5823 5823 5823 5822 5822 5822 5821 5821 5820 5820 5820 5819 5819 5819 5819 5819 5819 5818 5818 5818 5817 5817 5816 5815 5814 5814 5813 5812 5812 5811 5810 5809 5808 5807 5805 5804 5802 5801 5800 5798 5797 5796 5795 5793 5792 5791 5789 5788
5817 5820 5823 5821 5819 5820 5820 5820 5819 5819 5819 5819 5819 5818 5819 5820 5819 5818 5818 5817 5817 5816 5817 5818 5818 5819 5819 5819 5820 5820 5820 5820 5819 5819 5819 5819 5819 5819 5819 5820 5820 5819 5819 5818 5818 5817 5817 5816 5816 5815 5815 5815 5815 5815 5814 5814 5814 5813 5812 5812 5811 5810 5809 5808 5808 5807 5806 5805 5805 5803 5802 5802 5800 5799 5798 5796 5795 5794 5792 5791 5790 5788 5787 5785 5784 5782
5813 5816 5818 5817 5816 5816 5815 5815 5815 5815 5815 5814 5814 5814 5815 5816 5814 5813 5814 5813 5813 5812 5813 5813 5813 5815 5815 5816 5817 5817 5816 5816 5815 5815 5815 5816 5816 5816 5816 5816 5816 5815 5815 5814 5814 5813 5813 5812 5812 5811 5811 5810 5810 5810 5809 5809 5808 5808 5807 5806 5805 5805 5804 5803 5802 5801 5801 5800 5799 5797 5796 5795 5794 5793 5792 5791 5790 5789 5787 5786 5784 5783 5781 5780 5778 5776
5809 5812 5813 5813 5813 5811 5811 5811 5811 5811 5810 5809 5810 5810 5810 5810 5809 5809 5809 5808 5808 5808 5809 5809 5808 5810 5813 5812 5813 5813 5812 5812 5811 5811 5812 5812 5812 5812 5811 5811 5811 5810 5810 5810 5809 5809 5809 5808 5808 5807 5807 5806 5806 5805 5805 5804 5803 5803 5802 5801 5800 5799 5798 5797 5796 5796 5795 5794 5793 5791 5790 5789 5788 5787 5786 5785 5783 5782 5781 5780 5778 5777 5775 5774 5772 5771
5805 5807 5808 5808 5808 5806 5806 5806 5807 5806 5805 5804 5805 5806 5806 5805 5805 5805 5804 5804 5804 5804 5805 5804 5803 5806 5809 5809 5809 5809 5808 5808 5808 5808 5808 5808 5808 5808 5807 5807 5806 5806 5805 5805 5805 5805 5804 5804 5804 5803 5803 5802 5802 5801 5800 5799 5798 5797 5797 5796 5795 5794 5793 5792 5791 5790 5789 5788 5787 5785 5784 5783 5781 5780 5779 5778 5776 5775 5774 5773 5771 5770 5769 5767 5766 5764
5801 5804 5803 5803 5803 5802 5802 5802 5803 5801 5799 5800 5802 5802 5801 5801 5801 5800 5800 5800 5799 5800 5801 5801 5800 5801 5802 5804 5805 5805 5804 5804 5805 5805 5805 5804 5804 5803 5803 5802 5802 5802 5801 5801 5800 5800 5800 5800 5800 5799 5799 5798 5797 5796 5795 5794 5793 5792 5791 5790 5789 5788 5787 5786 5785 5784 5783 5782 5781 5779 5778 5776 5775 5773 5772 5770 5769 5768 5766 5765 5764 5763 5761 5760 5759 5757
5798 5798 5798 5798 5797 5797 5798 5798 5797 5796 5794 5796 5798 5798 5797 5797 5796 5796 5796 5795 5795 5795 5795 5797 5799 5796 5795 5797 5799 5799 5800 5801 5801 5801 5800 5800 5799 5799 5798 5798 5797 5797 5796 5796 5796 5796 5796 5796 5795 5795 5794 5793 5792 5791 5789 5788 5787 5786 5784 5783 5782 5781 5780 5779 5778 5777 5776 5775 5774 5773 5771 5770 5768 5767 5765 5763 5762 5760 5759 5758 5756 5755 5754 5753 5751 5750
5792 5792 5793 5793 5792 5792 5793 5793 5792 5791 5791 5792 5793 5793 5792 5792 5792 5791 5791 5791 5791 5790 5791 5795 5796 5791 5789 5791 5793 5794 5796 5797 5796 5796 5796 5795 5794 5794 5794 5793 5792 5792 5791 5791 5791 5791 5791 5791 5790 5789 5788 5787 5786 5785 5783 5782 5781 5779 5778 5777 5775 5774 5773 5772 5770 5769 5768 5767 5766 5765 5764 5763 5761 5759 5757 5756 5754 5753 5752 5750 5749 5747 5746 5745 5744 5743
5786 5787 5788 5788 5787 5788 5788 5787 5787 5787 5786 5787 5787 5787 5788 5787 5787 5787 5786 5787 5787 5785 5788 5792 5791 5786 5783 5784 5788 5790 5791 5791 5791 5791 5791 5790 5790 5789 5789 5788 5787 5787 5787 5787 5787 5787 5787 5786 5785 5784 5783 5781 5780 5779 5777 5776 5774 5772 5771 5770 5768 5767 5766 5764 5763 5762 5760 5759 5758 5757 5756 5755 5753 5751 5750 5748 5747 5745 5744 5742 5741 5739 5738 5737 5736 5735
5781 5782 5782 5782 5783 5783 5782 5782 5782 5782 5782 5782 5782 5782 5783 5782 5782 5782 5781 5782 5781 5781 5785 5786 5785 5782 5777 5777 5782 5784 5784 5784 5785 5785 5785 5785 5784 5784 5784 5783 5783 5784 5784 5783 5783 5782 5782 5780 5779 5778 5777 5775 5774 5772 5770 5768 5766 5765 5764 5763 5761 5760 5758 5757 5756 5755 5753 5751 5749 5748 5747 5746 5745 5743 5742 5740 5739 5737 5736 5734 5733 5731 5730 5729 5727 5726
5776 5776 5777 5777 5777 5777 5778 5778 5777 5777 5777 5777 5777 5777 5777 5777 5777 5776 5776 5777 5777 5777 5779 5780 5779 5777 5774 5774 5777 5777 5778 5778 5778 5778 5778 5779 5778 5778 5778 5779 5779 5779 5779 5778 5777 5777 5776 5774 5773 5771 5770 5768 5766 5764 5762 5761 5759 5758 5757 5756 5754 5753 5751 5750 5749 5747 5746 5744 5742 5740 5738 5737 5736 5735 5734 5733 5731 5730 5729 5727 5725 5724 5722 5720 5719 5717
5771 5771 5771 5771 5772 5773 5773 5773 5773 5773 5773 5772 5772 5772 5772 5772 5772 5772 5773 5773 5773 5772 5773 5772 5772 5770 5770 5772 5773 5772 5772 5772 5772 5772 5772 5772 5772 5772 5773 5773 5773 5772 5772 5771 5770 5769 5768 5767 5766 5764 5762 5761 5759 5757 5755 5754 5753 5751 5750 5749 5747 5746 5745 5743 5742 5740 5738 5736 5735 5733 5731 5729 5728 5727 5726 5725 5723 5722 5721 5719 5717 5716 5714 5712 5710 5709
5764 5765 5766 5766 5767 5768 5768 5768 5768 5768 5767 5766 5767 5767 5767 5767 5767 5768 5770 5769 5768 5768 5768 5766 5765 5764 5766 5768 5768 5767 5767 5767 5767 5767 5767 5767 5766 5766 5766 5766 5765 5765 5764 5763 5762 5761 5760 5759 5758 5756 5754 5753 5751 5750 5748 5747 5746 5744 5743 5741 5740 5738 5737 5736 5734 5732 5731 5729 5727 5725 5723 5722 5720 5718 5717 5716 5715 5714 5712 5711 5709 5707 5706 5704 5702 5700
5759 5759 5761 5761 5762 5762 5763 5763 5763 5762 5762 5762 5762 5762 5762 5763 5764 5765 5764 5763 5762 5763 5763 5761 5761 5761 5761 5762 5763 5762 5762 5763 5763 5762 5761 5761 5761 5761 5760 5760 5759 5758 5758 5757 5756 5754 5753 5752 5751 5749 5747 5746 5744 5743 5741 5740 5738 5737 5735 5734 5733 5731 5730 5728 5726 5725 5723 5721 5719 5717 5716 5714 5712 5710 5708 5707 5705 5704 5703 5702 5700 5698 5697 5695 5693 5692
5753 5754 5755 5756 5756 5757 5757 5757 5757 5757 5757 5757 5758 5757 5758 5761 5761 5759 5757 5757 5758 5757 5756 5757 5757 5757 5757 5757 5757 5756 5757 5758 5757 5756 5756 5756 5755 5755 5754 5753 5753 5753 5752 5751 5750 5748 5747 5746 5744 5742 5740 5739 5737 5736 5734 5733 5731 5729 5728 5726 5725 5724 5722 5721 5719 5717 5715 5713 5711 5710 5707 5705 5703 5701 5700 5698 5696 5695 5693 5692 5690 5689 5687 5685 5684 5682
5747 5748 5749 5750 5751 5751 5752 5752 5752 5753 5753 5753 5753 5754 5755 5756 5755 5753 5753 5753 5753 5751 5751 5752 5752 5752 5752 5751 5751 5751 5751 5752 5751 5750 5751 5750 5749 5749 5748 5747 5747 5747 5746 5745 5744 5742 5741 5739 5737 5735 5733 5731 5730 5728 5726 5725 5723 5722 5720 5719 5718 5716 5715 5713 5711 5709 5707 5705 5703 5701 5699 5697 5695 5693 5691 5689 5687 5685 5684 5682 5680 5679 5677 5676 5674 5672
5741 5742 5743 5745 5746 5746 5747 5747 5747 5748 5748 5748 5749 5751 5751 5749 5748 5749 5748 5748 5747 5746 5746 5747 5746 5746 5745 5745 5746 5746 5745 5745 5744 5744 5744 5744 5743 5742 5741 5741 5741 5740 5740 5738 5737 5735 5733 5731 5729 5727 5725 5723 5721 5720 5718 5717 5716 5714 5713 5711 5710 5708 5706 5704 5703 5701 5699 5697 5694 5692 5690 5688 5686 5684 5682 5680 5678 5676 5674 5673 5671 5669 5668 5666 5664 5663
5736 5736 5737 5738 5740 5741 5741 5742 5741 5742 5744 5744 5745 5746 5744 5743 5743 5744 5743 5742 5742 5740 5739 5740 5740 5740 5739 5739 5741 5740 5738 5738 5738 5738 5738 5738 5737 5736 5736 5735 5735 5734 5733 5731 5729 5727 5725 5723 5721 5719 5717 5716 5714 5713 5712 5710 5708 5707 5705 5703 5701 5699 5698 5696 5694 5692 5689 5687 5685 5683 5681 5679 5677 5675 5673 5671 5669 5667 5665 5663 5662 5660 5658 5656 5654 5652
5731 5730 5731 5732 5734 5735 5735 5736 5736 5738 5740 5740 5739 5738 5738 5738 5738 5738 5738 5737 5736 5734 5733 5734 5733 5733 5733 5733 5734 5733 5732 5733 5733 5732 5733 5732 5730 5729 5729 5729 5729 5727 5725 5723 5721 5719 5718 5716 5714 5712 5710 5709 5708 5706 5705 5703 5701 5699 5697 5695 5693 5691 5689 5687 5685 5683 5680 5678 5675 5673 5671 5669 5667 5665 5663 5661 5659 5657 5655 5653 5651 5649 5647 5645 5643 5641
5725 5725 5726 5727 5727 5727 5728 5731 5732 5733 5733 5732 5732 5732 5732 5732 5732 5732 5731 5731 5730 5728 5728 5727 5726 5726 5725 5725 5726 5726 5725 5726 5727 5726 5726 5725 5723 5723 5723 5723 5721 5718 5716 5714 5713 5711 5710 5708 5705 5704 5702 5701 5700 5698 5696 5694 5692 5690 5688 5687 5685 5682 5680 5678 5676 5674 5671 5669 5666 5664 5662 5660 5658 5656 5654 5652 5650 5647 5645 5643 5641 5639 5637 5635 5633 5631
5720 5720 5721 5720 5720 5721 5723 5725 5725 5725 5725 5726 5726 5726 5727 5727 5727 5725 5723 5724 5724 5723 5722 5720 5720 5721 5717 5715 5719 5720 5718 5719 5719 5719 5718 5717 5716 5716 5716 5714 5711 5709 5706 5705 5704 5702 5700 5699 5697 5696 5694 5693 5691 5689 5687 5685 5683 5681 5679 5678 5675 5673 5671 5669 5667 5665 5662 5659 5657 5655 5653 5651 5649 5646 5644 5642 5640 5638 5636 5634 5632 5629 5627 5625 5622 5620
5713 5713 5713 5713 5714 5716 5716 5717 5717 5718 5718 5719 5719 5721 5722 5721 5720 5718 5716 5717 5716 5715 5714 5711 5712 5715 5712 5709 5713 5715 5714 5713 5711 5710 5710 5709 5708 5707 5705 5703 5700 5699 5698 5696 5695 5693 5692 5690 5689 5688 5687 5685 5683 5681 5679 5677 5675 5672 5670 5668 5666 5664 5662 5660 5658 5655 5652 5650 5648 5646 5643 5641 5639 5637 5635 5633 5631 5629 5627 5624 5622 5620 5617 5615 5612 5609
5706 5706 5707 5707 5708 5709 5709 5710 5710 5710 5711 5713 5715 5717 5715 5713 5713 5711 5708 5709 5707 5706 5707 5704 5704 5708 5707 5706 5707 5707 5709 5709 5705 5703 5702 5700 5699 5697 5694 5692 5691 5690 5689 5687 5686 5685 5684 5683 5682 5681 5679 5677 5675 5672 5670 5668 5666 5664 5661 5659 5657 5654 5652 5650 5648 5645 5643 5640 5638 5636 5634 5632 5630 5628 5626 5624 5622 5620 5617 5615 5612 5609 5607 5604 5601 5598
5698 5699 5701 5701 5700 5701 5700 5701 5702 5704 5707 5708 5708 5707 5705 5705 5705 5702 5701 5700 5698 5699 5700 5696 5697 5702 5702 5701 5699 5699 5702 5702 5699 5697 5696 5693 5691 5688 5685 5684 5683 5682 5680 5679 5678 5677 5676 5675 5674 5673 5671 5668 5666 5663 5662 5660 5657 5655 5652 5650 5647 5645 5642 5640 5638 5636 5634 5631 5629 5627 5625 5623 5621 5619 5617 5615 5613 5610 5607 5604 5602 5599 5596 5593 5591 5588
5690 5692 5694 5694 5693 5692 5693 5694 5697 5700 5701 5700 5699 5698 5697 5697 5696 5695 5694 5692 5689 5691 5693 5689 5690 5696 5698 5694 5690 5692 5695 5694 5691 5690 5688 5686 5682 5679 5678 5677 5675 5674 5672 5671 5670 5669 5669 5668 5666 5664 5661 5658 5656 5654 5652 5650 5648 5646 5643 5640 5638 5635 5633 5631 5629 5628 5625 5623 5620 5618 5616 5614 5612 5610 5608 5605 5603 5600 5597 5594 5591 5588 5586 5583 5580 5577
5682 5684 5686 5687 5686 5686 5687 5689 5691 5692 5690 5689 5691 5691 5691 5690 5689 5688 5686 5684 5683 5682 5684 5686 5686 5687 5691 5689 5684 5685 5687 5684 5682 5681 5678 5676 5673 5672 5671 5669 5667 5666 5665 5664 5663 5661 5660 5659 5657 5654 5652 5649 5646 5644 5642 5640 5639 5636 5633 5631 5629 5626 5624 5622 5621 5619 5617 5614 5612 5609 5607 5605 5602 5600 5598 5596 5593 5590 5587 5584 5581 5578 5575 5572 5569 5566
5674 5676 5679 5680 5680 5680 5680 5681 5682 5682 5681 5681 5683 5684 5685 5684 5682 5679 5678 5679 5678 5673 5675 5683 5680 5676 5683 5684 5678 5678 5679 5676 5674 5672 5669 5667 5666 5665 5664 5662 5660 5659 5658 5657 5656 5654 5652 5650 5648 5645 5643 5640 5637 5634 5632 5630 5629 5627 5624 5622 5620 5618 5616 5614 5612 5610 5608 5606 5603 5600 5598 5595 5593 5591 5588 5585 5583 5580 5577 5574 5571 5568 5564 5561 5558 5555
5665 5667 5671 5672 5672 5672 5672 5671 5672 5672 5672 5673 5675 5678 5680 5678 5673 5672 5672 5673 5671 5667 5669 5675 5671 5669 5675 5675 5670 5671 5670 5667 5665 5663 5662 5661 5660 5659 5657 5656 5654 5652 5651 5650 5648 5646 5644 5641 5639 5636 5634 5631 5627 5625 5623 5620 5619 5618 5616 5614 5612 5610 5607 5605 5603 5601 5599 5596 5594 5591 5588 5585 5583 5580 5578 5575 5573 5570 5567 5563 5560 5557 5554 5550 5547 5543
5658 5660 5662 5663 5663 5664 5663 5662 5663 5664 5664 5665 5669 5673 5674 5670 5665 5665 5667 5667 5664 5661 5663 5663 5660 5663 5666 5663 5662 5664 5661 5658 5657 5656 5655 5654 5652 5651 5650 5648 5647 5645 5645 5644 5641 5638 5635 5633 5630 5627 5624 5621 5618 5615 5613 5611 5610 5609 5607 5605 5603 5600 5598 5596 5594 5592 5589 5586 5584 5581 5578 5575 5573 5570 5567 5565 5563 5560 5556 5553 5550 5547 5543 5540 5536 5533
5653 5654 5655 5656 5655 5655 5656 5656 5656 5657 5656 5657 5662 5666 5665 5660 5658 5659 5661 5660 5656 5654 5656 5655 5651 5655 5658 5656 5654 5653 5650 5649 5649 5648 5647 5646 5644 5643 5642 5640 5639 5637 5636 5635 5632 5629 5627 5624 5621 5618 5615 5612 5609 5607 5605 5603 5601 5600 5598 5596 5594 5591 5589 5587 5585 5582 5580 5577 5574 5571 5568 5565 5562 5560 5558 5555 5552 5550 5546 5543 5539 5536 5533 5529 5525 5522
5647 5646 5647 5648 5646 5647 5651 5649 5648 5651 5649 5649 5656 5660 5657 5654 5655 5654 5652 5651 5650 5649 5649 5646 5644 5648 5651 5649 5645 5643 5641 5640 5640 5639 5638 5636 5635 5634 5633 5631 5629 5628 5627 5625 5623 5620 5618 5615 5612 5609 5606 5603 5601 5599 5597 5594 5592 5591 5590 5588 5585 5583 5580 5577 5575 5573 5570 5567 5564 5561 5558 5555 5552 5550 5548 5545 5542 5539 5536 5532 5529 5525 5522 5518 5514 5511
5640 5638 5639 5639 5637 5639 5643 5642 5642 5643 5639 5640 5651 5655 5653 5651 5649 5645 5644 5645 5645 5644 5640 5638 5639 5641 5642 5639 5637 5635 5633 5632 5631 5630 5628 5626 5626 5624 5623 5622 5620 5619 5617 5615 5613 5611 5608 5606 5603 5600 5598 5595 5593 5591 5589 5587 5585 5583 5582 5579 5577 5574 5571 5568 5566 5563 5560 5557 5554 5551 5548 5545 5543 5540 5537 5534 5531 5529 5525 5521 5518 5514 5511 5507 5504 5500
5632 5631 5631 5630 5629 5631 5634 5635 5633 5629 5627 5635 5647 5649 5647 5644 5640 5636 5637 5639 5638 5636 5633 5631 5631 5632 5631 5630 5629 5626 5624 5623 5622 5621 5619 5617 5617 5615 5612 5611 5610 5609 5608 5605 5603 5601 5599 5597 5594 5591 5589 5587 5585 5583 5581 5580 5578 5576 5573 5571 5568 5566 5563 5560 5557 5554 5551 5548 5544 5541 5538 5535 5532 5529 5526 5523 5520 5517 5514 5510 5506 5503 5500 5497 5493 5490
5624 5624 5623 5623 5622 5622 5625 5626 5620 5615 5621 5633 5638 5637 5636 5634 5631 5628 5628 5630 5630 5628 5625 5622 5621 5622 5622 5621 5619 5616 5615 5614 5613 5613 5612 5609 5608 5607 5603 5601 5600 5599 5598 5596 5594 5592 5590 5587 5585 5583 5581 5579 5577 5576 5574 5572 5570 5568 5565 5563 5560 5557 5554 5551 5548 5544 5541 5538 5535 5531 5528 5525 5522 5518 5515 5512 5509 5505 5502 5498 5495 5493 5490 5487 5484 5481
5617 5617 5616 5616 5615 5613 5615 5615 5610 5608 5617 5625 5625 5625 5627 5624 5622 5620 5619 5622 5623 5619 5614 5612 5610 5613 5614 5611 5608 5607 5606 5605 5605 5605 5604 5601 5599 5597 5594 5593 5592 5590 5589 5587 5585 5583 5581 5578 5577 5575 5573 5572 5570 5568 5566 5564 5562 5560 5557 5554 5551 5548 5545 5542 5538 5535 5531 5528 5524 5521 5518 5515 5511 5507 5504 5501 5498 5495 5492 5488 5486 5483 5481 5478 5476 5473
5610 5610 5610 5609 5607 5607 5606 5605 5605 5604 5607 5613 5615 5617 5617 5614 5612 5611 5609 5613 5616 5611 5605 5602 5601 5604 5605 5601 5598 5598 5597 5596 5597 5598 5595 5592 5590 5588 5587 5586 5584 5582 5580 5578 5576 5574 5572 5570 5569 5567 5566 5564 5562 5560 5558 5556 5553 5551 5548 5545 5542 5539 5536 5532 5529 5525 5521 5517 5514 5511 5508 5504 5500 5497 5494 5491 5488 5485 5482 5479 5477 5475 5473 5470 5468 5465
5603 5602 5604 5601 5598 5600 5599 5596 5596 5594 5596 5605 5610 5609 5607 5604 5603 5601 5598 5601 5608 5604 5596 5593 5592 5593 5594 5591 5588 5589 5587 5586 5589 5589 5584 5582 5582 5582 5579 5578 5575 5572 5571 5569 5567 5566 5564 5562 5561 5559 5558 5557 5554 5552 5550 5547 5544 5542 5539 5536 5533 5529 5526 5522 5518 5514 5510 5507 5504 5500 5497 5493 5490 5487 5484 5482 5480 5477 5474 5471 5469 5467 5465 5462 5460 5458
5596 5595 5596 5593 5589 5591 5591 5588 5587 5586 5589 5599 5602 5599 5598 5596 5595 5592 5586 5588 5598 5597 5588 5585 5583 5580 5581 5581 5579 5579 5578 5577 5579 5578 5574 5573 5575 5573 5570 5568 5566 5564 5563 5560 5559 5558 5556 5555 5553 5552 5550 5548 5546 5543 5541 5538 5535 5532 5529 5526 5522 5518 5515 5511 5506 5503 5499 5496 5493 5490 5487 5484 5481 5478 5476 5473 5471 5469 5466 5464 5461 5459 5457 5455 5453 5450
5588 5587 5587 5584 5582 5584 5584 5580 5579 5580 5584 5590 5590 5588 5589 5588 5586 5582 5575 5575 5584 5586 5580 5577 5573 5570 5572 5572 5570 5570 5570 5569 5569 5568 5566 5566 5566 5564 5562 5560 5558 5555 5554 5552 5551 5550 5549 5547 5546 5544 5542 5539 5537 5534 5531 5528 5525 5522 5518 5515 5511 5508 5504 5499 5495 5492 5489 5486 5483 5480 5478 5475 5472 5470 5468 5466 5464 5461 5458 5456 5454 5452 5450 5447 5445 5443
5580 5579 5578 5577 5577 5578 5576 5572 5571 5573 5579 5582 5579 5577 5580 5578 5573 5570 5567 5567 5568 5568 5569 5569 5566 5564 5564 5563 5562 5563 5562 5560 5559 5559 5559 5559 5558 5556 5555 5552 5550 5547 5546 5544 5543 5542 5541 5539 5537 5535 5533 5530 5527 5524 5521 5517 5515 5511 5507 5504 5500 5497 5492 5488 5485 5483 5479 5476 5474 5472 5469 5467 5465 5463 5461 5459 5457 5454 5451 5449 5447 5445 5442 5440 5437 5435
5573 5571 5569 5570 5571 5570 5568 5566 5562 5565 5573 5576 5570 5567 5570 5566 5559 5558 5559 5558 5555 5554 5556 5558 5557 5556 5555 5553 5554 5554 5553 5552 5551 5550 5550 5550 5550 5548 5546 5544 5542 5540 5538 5536 5535 5533 5532 5530 5528 5526 5523 5519 5516 5513 5510 5507 5504 5500 5496 5493 5491 5486 5482 5479 5477 5473 5470 5468 5466 5464 5462 5460 5458 5456 5454 5452 5450 5447 5444 5442 5440 5438 5435 5432 5430 5428
5564 5562 5560 5563 5566 5563 5561 5559 5556 5559 5567 5568 5560 5556 5557 5554 5549 5548 5548 5547 5545 5545 5545 5545 5546 5546 5545 5546 5547 5546 5545 5544 5543 5542 5542 5541 5540 5539 5537 5535 5534 5532 5530 5528 5526 5524 5522 5520 5518 5515 5512 5509 5506 5503 5500 5497 5493 5490 5486 5484 5481 5477 5473 5471 5468 5465 5462 5460 5458 5457 5455 5453 5451 5449 5447 5445 5443 5440 5437 5435 5432 5430 5427 5425 5423 5420
5554 5554 5555 5557 5559 5555 5552 5552 5552 5554 5556 5555 5551 5548 5546 5542 5539 5538 5536 5535 5535 5534 5533 5534 5536 5536 5537 5538 5539 5539 5538 5537 5535 5534 5533 5531 5530 5530 5527 5526 5524 5522 5521 5519 5517 5515 5513 5510 5508 5505 5502 5499 5496 5493 5490 5486 5483 5480 5478 5475 5472 5468 5466 5463 5460 5458 5456 5453 5451 5450 5448 5446 5445 5443 5440 5438 5436 5434 5431 5428 5425 5422 5420 5417 5415 5412
5545 5547 5548 5549 5549 5546 5544 5545 5546 5545 5545 5545 5543 5539 5534 5530 5528 5528 5526 5525 5523 5522 5523 5525 5527 5528 5529 5530 5530 5530 5530 5528 5527 5526 5524 5523 5522 5520 5518 5517 5515 5513 5512 5510 5508 5506 5504 5502 5499 5495 5492 5490 5487 5483 5479 5476 5474 5472 5470 5467 5463 5461 5459 5456 5454 5451 5449 5447 5445 5443 5442 5440 5438 5436 5434 5432 5430 5427 5424 5421 5418 5415 5412 5409 5406 5404
5536 5538 5539 5540 5539 5537 5536 5537 5537 5536 5536 5536 5532 5527 5524 5521 5519 5517 5516 5514 5512 5512 5515 5517 5519 5520 5520 5521 5521 5521 5521 5520 5519 5518 5517 5515 5514 5511 5508 5507 5505 5504 5502 5500 5498 5496 5494 5493 5490 5487 5484 5481 5478 5474 5471 5468 5465 5464 5461 5458 5456 5454 5452 5450 5447 5445 5442 5440 5439 5437 5435 5433 5431 5429 5428 5425 5423 5420 5417 5414 5411 5408 5405 5401 5398 5396
5530 5530 5529 5530 5531 5529 5527 5528 5528 5526 5526 5526 5521 5517 5515 5512 5509 5506 5504 5503 5503 5506 5508 5510 5510 5511 5512 5512 5512 5511 5511 5512 5511 5510 5509 5508 5506 5503 5499 5497 5495 5493 5491 5490 5488 5486 5484 5483 5481 5478 5476 5473 5470 5466 5463 5460 5458 5456 5453 5451 5449 5447 5445 5443 5441 5439 5436 5434 5433 5431 5429 5427 5425 5423 5421 5418 5416 5413 5410 5407 5404 5401 5397 5393 5390 5388
5522 5522 5521 5522 5522 5520 5519 5520 5520 5517 5516 5515 5511 5507 5505 5501 5499 5497 5495 5495 5497 5500 5501 5501 5501 5502 5503 5503 5502 5502 5503 5503 5503 5502 5502 5501 5498 5494 5490 5487 5485 5483 5481 5479 5478 5476 5475 5473 5471 5469 5467 5465 5462 5459 5456 5454 5451 5448 5446 5444 5443 5440 5439 5437 5434 5432 5430 5428 5426 5424 5423 5421 5419 5417 5414 5411 5409 5406 5403 5400 5397 5394 5390 5386 5382 5380
5514 5514 5515 5514 5513 5511 5511 5511 5510 5508 5506 5503 5500 5498 5495 5492 5490 5489 5488 5490 5492 5493 5493 5492 5492 5492 5494 5494 5494 5494 5495 5495 5494 5493 5492 5492 5489 5485 5480 5478 5476 5474 5472 5470 5468 5467 5466 5464 5462 5460 5458 5457 5454 5451 5449 5447 5444 5441 5439 5438 5436 5434 5432 5430 5428 5426 5424 5422 5420 5418 5417 5415 5412 5409 5407 5404 5401 5398 5395 5392 5389 5386 5383 5378 5375 5373
5507 5508 5509 5506 5503 5502 5502 5501 5499 5497 5495 5492 5491 5489 5487 5485 5483 5482 5482 5484 5484 5484 5484 5484 5484 5484 5485 5486 5486 5486 5486 5486 5484 5482 5482 5482 5479 5475 5471 5469 5467 5466 5464 5461 5459 5458 5457 5455 5453 5451 5450 5448 5446 5444 5442 5440 5437 5435 5433 5431 5430 5428 5425 5423 5422 5419 5417 5415 5413 5412 5410 5408 5405 5402 5400 5397 5394 5391 5388 5384 5381 5379 5376 5372 5368 5365
5500 5501 5500 5497 5494 5492 5491 5491 5488 5486 5486 5486 5483 5480 5479 5478 5477 5476 5476 5476 5476 5475 5475 5474 5475 5476 5477 5477 5476 5475 5476 5476 5474 5471 5471 5471 5470 5467 5463 5461 5459 5457 5456 5453 5451 5450 5448 5445 5444 5443 5441 5440 5438 5436 5435 5433 5430 5429 5427 5425 5423 5421 5419 5417 5415 5413 5410 5408 5406 5405 5403 5400 5398 5396 5393 5390 5387 5384 5381 5378 5374 5371 5369 5366 5362 5358